Hourly Data Report for October 17, 2015

All times are specified in Local Standard Time (LST). Add 1 hour to adjust for Daylight Saving Time where and when it is observed.

CHARLOTTETOWN A
PRINCE EDWARD ISLAND

46°17'21.000" N
63°07'09.000" W
48.50 m
8300301
71706
YYG

Download Data

Hourly Data (October 2015)
Hourly Data Report for October 17, 2015
Temp Definition
°C
Dew Point Temp Definition
°C
Rel Hum Definition
%
Wind Dir Definition
10's deg

Wind Spd Definition
km/h
Visibility Definition
km
Stn Press Definition
kPa
Hmdx Definition


Wind Chill Definition


Weather Definition


TIME
00:00 Legend Double Dagger 6.0 4.2 88 28 14 24.1 100.41     LegendNANA
01:00 Legend Double Dagger 5.7 3.6 86 29 20 24.1 100.43     LegendNANA
02:00 Legend Double Dagger 5.1 2.6 84 28 13 24.1 100.50     Mostly Cloudy
03:00 Legend Double Dagger 4.4 2.1 85 25 12 24.1 100.55     LegendNANA
04:00 Legend Double Dagger 3.1 1.5 89 25 10 24.1 100.59     LegendNANA
05:00 Legend Double Dagger 2.5 0.9 89 24 13 24.1 100.68     Mainly Clear
06:00 Legend Double Dagger 2.3 -0.1 84 30 8 24.1 100.70     LegendNANA
07:00 Legend Double Dagger 2.4 -0.4 82 29 11 24.1 100.75     LegendNANA
08:00 Legend Double Dagger 3.5 0.6 81 27 9 24.1 100.84     Mainly Clear
09:00 Legend Double Dagger 5.0 1.0 75 26 10 24.1 100.85     LegendNANA
10:00 Legend Double Dagger 6.2 0.1 65 26 9 24.1 100.83     LegendNANA
11:00 Legend Double Dagger 7.2 -2.0 52 27 12 24.1 100.86     Mainly Clear
12:00 Legend Double Dagger 7.7 -0.8 55 26 9 24.1 100.82     LegendNANA
13:00 Legend Double Dagger 8.4 0.9 59 26 9 24.1 100.78     LegendNANA
14:00 Legend Double Dagger 8.6 0.1 55 21 5 24.1 100.73     Mainly Clear
15:00 Legend Double Dagger 8.9 0.9 57 16 13 24.1 100.71     LegendNANA
16:00 Legend Double Dagger 7.5 0.7 62 14 8 24.1 100.69     LegendNANA
17:00 Legend Double Dagger 7.1 1.4 67 12 6 24.1 100.68     Mostly Cloudy
18:00 Legend Double Dagger 5.8 0.6 69 6 13 24.1 100.65     LegendNANA
19:00 Legend Double Dagger 5.8 1.5 74 7 12 24.1 100.61     LegendNANA
20:00 Legend Double Dagger 5.7 2.9 82 12 8 24.1 100.54     Cloudy
21:00 Legend Double Dagger 8.3 4.9 79 18 20 24.1 100.47     LegendNANA
22:00 Legend Double Dagger 8.6 5.5 81 18 18 24.1 100.42     LegendNANA
23:00 Legend Double Dagger 8.4 6.0 85 22 27 16.1 100.37     Rain Showers

Notes on Data Quality.

Legend

  • E = Estimated
  • M = Missing
  • NA = Not Available
  • ‡ = Partner data that is not subject to review by the National Climate Archives
Date modified: